sat.trackr.live / text

‹ back to catalog

STARLINK-36974

NORAD 68272 · 2026-055L

PAYLOAD ACTIVE UNKNOWN

§ Identity

Operator
Country
US
Launch date
2026-03-19
Launch site
AFETR
Launch vehicle
Mass (kg)
RCS (m²)

Purposes: comms

External: N2YO · Heavens-Above · Gunter

§ Orbital elements

Epoch: 2026-09-19T23:58:53.262048Z

Period
93.85 min
Inclination
53.1580°
Eccentricity
0.0002631
Mean motion
15.34375729 rev/d
Perigee alt
461.0 km
Apogee alt
464.6 km
Semi-major
6,840.9 km
B*
4.8891e-4
RAAN
134.4067°
Arg perigee
24.4934°
Mean anomaly
335.6194°
Rev number
2,971

§ Raw data

STARLINK-369741 68272U 26055L   26262.99922757  .00016166  00000+0  48891-3 0  99932 68272  53.1580 134.4067 0002631  24.4934 335.6194 15.34375729 29718

JSON: /api/v1/satellites/68272 · /tle

For live sub-satellite position, see the globe view (requires WebGL).

§ Visibility from observer

Set your observer location to see the next 7 days of passes ≥ 10°. The values pass through the URL so the page stays shareable.

No JS? Fill the form by hand. The geolocation button needs JavaScript.